OK1FET-6 Weather Reports


Display with metric or nautical units.
time (UTC)temp
F
wind
direction
speed
MPH
gust
MPH
rain 1hr
in
rain 24hr
in
rain mn
in
humidity
%
barometer
mb
20260507181019 57 350 2.0 4.0 0.00 0.22 0.00 61 1013.9
20260507180520 58 304 3.0 6.0 0.00 0.22 0.00 61 1013.9
20260507180022 58 308 5.0 9.0 0.00 0.22 0.00 60 1013.9
20260507175523 59 324 4.0 7.0 0.00 0.22 0.00 60 1013.8
20260507175025 59 315 3.0 7.0 0.00 0.22 0.00 60 1013.7
20260507174526 60 312 4.0 10.0 0.00 0.22 0.00 59 1013.7
20260507174028 60 306 3.0 7.0 0.00 0.22 0.00 59 1013.6
20260507173529 61 309 3.0 6.0 0.00 0.22 0.00 59 1013.6
20260507173031 61 297 3.0 7.0 0.00 0.22 0.00 59 1013.4
20260507172532 61 335 3.0 8.0 0.00 0.22 0.00 58 1013.4
20260507172034 61 336 3.0 7.0 0.00 0.22 0.00 58 1013.4
20260507171535 61 296 2.0 5.0 0.00 0.22 0.00 58 1013.3
20260507171037 62 321 2.0 6.0 0.00 0.22 0.00 58 1013.3
20260507170538 62 294 3.0 7.0 0.00 0.22 0.00 58 1013.3
20260507170040 62 306 4.0 7.0 0.00 0.22 0.00 57 1013.3
20260507165541 63 312 5.0 11.0 0.00 0.22 0.00 57 1013.3
20260507165043 63 311 4.0 6.0 0.00 0.22 0.00 57 1013.3
20260507164544 63 301 4.0 7.0 0.00 0.22 0.00 57 1013.3
20260507164045 64 286 5.0 10.0 0.00 0.22 0.00 56 1013.3
20260507163547 64 302 3.0 5.0 0.00 0.22 0.00 56 1013.2
20260507163048 64 302 4.0 9.0 0.00 0.22 0.00 56 1013.2
20260507162550 65 296 3.0 7.0 0.00 0.22 0.00 56 1013.2
20260507162051 65 317 4.0 11.0 0.00 0.22 0.00 56 1013.1
20260507161553 65 323 4.0 15.0 0.00 0.22 0.00 55 1013.1
20260507161054 66 321 5.0 8.0 0.00 0.22 0.00 55 1013.1
20260507160556 66 359 3.0 6.0 0.00 0.22 0.00 55 1013.0
20260507160057 66 33 2.0 4.0 0.00 0.22 0.00 55 1012.9
20260507155559 66 28 3.0 11.0 0.00 0.24 0.00 55 1012.9
20260507155100 66 308 5.0 7.0 0.00 0.26 0.00 54 1012.9
20260507154602 66 274 4.0 7.0 0.00 0.26 0.00 54 1012.8
20260507154103 67 270 5.0 15.0 0.00 0.26 0.00 54 1012.8
20260507153605 67 264 7.0 13.0 0.00 0.28 0.00 54 1012.8
20260507153106 68 267 4.0 7.0 0.00 0.28 0.00 55 1012.6
20260507152608 68 260 4.0 7.0 0.00 0.28 0.00 55 1012.7
20260507152109 68 293 4.0 8.0 0.00 0.28 0.00 54 1012.7
20260507151610 69 303 6.0 14.0 0.00 0.28 0.00 54 1012.6
20260507151112 69 313 5.0 10.0 0.00 0.28 0.00 54 1012.5
20260507150613 70 315 5.0 10.0 0.00 0.28 0.00 54 1012.4
20260507150115 71 302 6.0 13.0 0.00 0.28 0.00 54 1012.4
20260507145616 71 303 4.0 6.0 0.00 0.28 0.00 54 1012.4
20260507145118 72 315 4.0 9.0 0.00 0.28 0.00 53 1012.4
20260507144619 74 268 5.0 9.0 0.00 0.28 0.00 53 1012.5
20260507144121 75 301 4.0 7.0 0.00 0.28 0.00 53 1012.4
20260507143622 76 284 3.0 6.0 0.00 0.28 0.00 53 1012.3
20260507143124 77 255 4.0 7.0 0.00 0.28 0.00 52 1012.3
20260507142625 78 253 5.0 10.0 0.00 0.28 0.00 52 1012.5
20260507142127 80 284 2.0 7.0 0.00 0.28 0.00 52 1012.4
20260507141628 81 305 3.0 6.0 0.00 0.28 0.00 51 1012.4
20260507141130 81 258 4.0 9.0 0.00 0.28 0.00 51 1012.4
20260507140631 80 312 3.0 5.0 0.00 0.28 0.00 51 1012.4
20260507140133 78 266 5.0 9.0 0.00 0.28 0.00 52 1012.4
20260507135634 77 276 5.0 9.0 0.00 0.28 0.00 54 1012.4
20260507135135 76 251 5.0 10.0 0.00 0.28 0.00 54 1012.5
20260507134637 77 276 5.0 8.0 0.00 0.28 0.00 53 1012.4
20260507134138 78 259 7.0 11.0 0.00 0.28 0.00 53 1012.5
20260507133640 78 268 5.0 10.0 0.00 0.28 0.00 54 1012.5
20260507133141 77 262 5.0 11.0 0.00 0.28 0.00 56 1012.5
20260507132643 77 268 5.0 13.0 0.00 0.28 0.00 56 1012.5
20260507132144 76 303 4.0 10.0 0.00 0.28 0.00 57 1012.5
20260507131646 76 254 6.0 13.0 0.00 0.28 0.00 56 1012.5
20260507131147 76 247 7.0 10.0 0.00 0.28 0.00 58 1012.6
20260507130649 75 263 6.0 10.0 0.00 0.28 0.00 60 1012.5
20260507130150 73 277 5.0 12.0 0.00 0.28 0.00 61 1012.5
20260507125651 73 258 6.0 12.0 0.00 0.28 0.00 62 1012.5
20260507125153 73 302 5.0 10.0 0.00 0.28 0.00 62 1012.4
20260507124654 73 283 5.0 15.0 0.00 0.28 0.00 63 1012.4
20260507124156 73 280 5.0 9.0 0.00 0.28 0.00 63 1012.5
20260507123657 73 264 5.0 9.0 0.00 0.28 0.00 64 1012.5
20260507123159 73 274 6.0 12.0 0.00 0.28 0.00 64 1012.4
20260507122700 72 266 6.0 8.0 0.00 0.28 0.00 66 1012.4
20260507122202 70 250 5.0 8.0 0.00 0.28 0.00 67 1012.3
20260507121703 68 259 4.0 8.0 0.00 0.28 0.00 69 1012.3
20260507121205 67 272 4.0 7.0 0.00 0.28 0.00 70 1012.3
20260507120706 67 265 6.0 12.0 0.00 0.28 0.00 70 1012.4
20260507120207 67 252 5.0 9.0 0.00 0.28 0.00 72 1012.3
20260507115709 67 257 4.0 7.0 0.00 0.28 0.00 72 1012.2
20260507115210 68 269 5.0 10.0 0.00 0.28 0.00 72 1012.3
20260507114712 68 281 4.0 7.0 0.00 0.28 0.00 72 1012.3
20260507114213 69 270 6.0 10.0 0.00 0.28 0.00 72 1012.2
20260507113715 70 276 6.0 10.0 0.00 0.28 0.00 73 1012.4
20260507113216 70 265 4.0 7.0 0.00 0.28 0.00 74 1012.2
20260507112718 70 250 6.0 10.0 0.00 0.28 0.00 74 1012.1
20260507112219 71 263 4.0 8.0 0.00 0.28 0.00 75 1012.2
20260507111721 71 264 5.0 11.0 0.00 0.28 0.00 76 1012.2
20260507111222 72 287 5.0 12.0 0.00 0.28 0.00 76 1012.2
20260507110724 73 285 4.0 10.0 0.00 0.28 0.00 75 1012.1
20260507110225 74 280 5.0 10.0 0.00 0.28 0.00 75 1012.2
20260507105726 76 270 7.0 16.0 0.00 0.28 0.00 75 1012.2
20260507105228 77 258 5.0 7.0 0.00 0.28 0.00 78 1012.1
20260507104729 75 272 5.0 7.0 0.00 0.28 0.00 79 1012.1
20260507104231 74 259 6.0 13.0 0.00 0.28 0.00 80 1012.1
20260507103732 72 265 6.0 15.0 0.00 0.28 0.00 80 1012.2
20260507103234 72 264 3.0 8.0 0.00 0.28 0.00 81 1011.9
20260507102735 71 274 5.0 9.0 0.00 0.28 0.00 81 1012.0
20260507102237 71 260 5.0 10.0 0.00 0.28 0.00 81 1011.9
20260507101738 70 292 5.0 11.0 0.00 0.28 0.00 81 1011.9
20260507101240 69 280 5.0 14.0 0.00 0.28 0.00 81 1011.8
20260507100741 69 298 4.0 8.0 0.00 0.28 0.00 81 1011.9
20260507100243 69 315 4.0 7.0 0.00 0.28 0.00 80 1011.8
20260507095744 70 291 4.0 9.0 0.00 0.28 0.00 81 1011.7
20260507095245 70 255 4.0 9.0 0.00 0.28 0.00 81 1011.7
20260507094747 70 277 6.0 10.0 0.00 0.28 0.00 80 1011.7
20260507094248 70 255 4.0 9.0 0.00 0.28 0.00 81 1011.6
20260507093750 69 276 5.0 7.0 0.00 0.28 0.00 80 1011.5
20260507093251 69 262 8.0 13.0 0.00 0.28 0.00 78 1011.5
20260507092753 70 260 6.0 20.0 0.00 0.28 0.00 77 1011.6
20260507092254 71 260 4.0 8.0 0.00 0.28 0.00 78 1011.5
20260507091756 73 261 3.0 7.0 0.00 0.28 0.00 77 1011.4
20260507091257 74 292 3.0 5.0 0.00 0.28 0.00 77 1011.4
20260507090759 75 271 4.0 9.0 0.00 0.28 0.00 76 1011.3
20260507090300 74 298 4.0 9.0 0.00 0.28 0.00 78 1011.3
20260507085802 74 273 5.0 11.0 0.00 0.28 0.00 77 1011.3
20260507085306 73 274 4.0 7.0 0.00 0.28 0.00 80 1011.2
20260507084804 71 319 3.0 6.0 0.00 0.28 0.00 80 1011.2
20260507084306 71 263 5.0 10.0 0.00 0.28 0.00 80 1011.2
20260507083807 70 270 5.0 10.0 0.00 0.28 0.00 82 1011.1
20260507083309 69 276 5.0 10.0 0.00 0.28 0.00 83 1011.1
20260507082810 67 256 5.0 9.0 0.00 0.28 0.00 83 1011.0
20260507082312 66 269 5.0 10.0 0.00 0.28 0.00 84 1011.0
20260507081813 65 267 6.0 10.0 0.00 0.28 0.00 83 1010.9
20260507081315 66 255 6.0 9.0 0.00 0.28 0.00 84 1010.9
20260507080816 66 277 5.0 10.0 0.00 0.28 0.00 87 1010.7
20260507080317 64 294 4.0 6.0 0.00 0.28 0.00 89 1010.6
20260507075819 61 264 6.0 10.0 0.00 0.28 0.00 90 1010.7
20260507075320 60 272 5.0 13.0 0.00 0.28 0.00 90 1010.7
20260507074822 59 253 5.0 8.0 0.00 0.28 0.00 90 1010.7
20260507074323 58 254 4.0 9.0 0.00 0.28 0.00 90 1010.7
20260507073825 58 248 5.0 13.0 0.00 0.28 0.00 90 1010.6
20260507073326 58 264 5.0 10.0 0.00 0.28 0.00 90 1010.6
20260507072828 58 281 4.0 7.0 0.00 0.28 0.00 90 1010.6
20260507072329 58 280 5.0 10.0 0.00 0.28 0.00 90 1010.5
20260507071831 59 249 4.0 7.0 0.00 0.28 0.00 90 1010.5
20260507071332 59 257 3.0 5.0 0.00 0.28 0.00 91 1010.4
20260507070834 59 300 3.0 7.0 0.00 0.28 0.00 91 1010.3
20260507070335 59 294 2.0 6.0 0.00 0.28 0.00 92 1010.2
20260507065837 59 269 4.0 7.0 0.00 0.28 0.00 92 1010.2
20260507065338 59 250 3.0 6.0 0.00 0.28 0.00 92 1010.2
20260507064840 59 260 4.0 10.0 0.00 0.28 0.00 92 1010.1
20260507064341 58 268 4.0 7.0 0.00 0.28 0.00 93 1010.1
20260507063843 58 259 3.0 7.0 0.00 0.28 0.00 93 1010.1
20260507063344 58 265 4.0 7.0 0.00 0.28 0.00 93 1010.1
20260507062845 57 234 2.0 4.0 0.00 0.28 0.00 93 1010.0
20260507062347 57 261 3.0 6.0 0.00 0.28 0.00 93 1010.0
20260507061848 56 253 2.0 6.0 0.00 0.28 0.00 93 1009.9
20260507061350 55 265 3.0 5.0 0.00 0.28 0.00 93 1009.9
20260507060851 55 266 3.0 7.0 0.00 0.28 0.00 93 1009.8
20260507060353 55 230 1.0 2.0 0.00 0.28 0.00 93 1009.7
20260507055854 54 259 3.0 7.0 0.00 0.28 0.00 93 1009.7
20260507055355 54 251 3.0 5.0 0.00 0.28 0.00 93 1009.7
20260507054857 54 265 3.0 5.0 0.00 0.28 0.00 93 1009.6
20260507054358 54 242 2.0 5.0 0.00 0.28 0.00 93 1009.6
20260507053900 54 250 3.0 6.0 0.00 0.28 0.00 93 1009.6
20260507053401 54 259 4.0 8.0 0.00 0.28 0.00 93 1009.4
20260507052903 53 262 3.0 6.0 0.00 0.28 0.00 93 1009.4
20260507052404 53 255 2.0 4.0 0.00 0.28 0.00 93 1009.4
20260507051906 53 250 3.0 7.0 0.00 0.28 0.00 93 1009.5
20260507051407 53 252 2.0 5.0 0.00 0.28 0.00 93 1009.4
20260507050909 53 243 3.0 6.0 0.00 0.28 0.00 93 1009.3
20260507050410 53 251 2.0 6.0 0.00 0.28 0.00 93 1009.3
20260507045912 52 242 1.0 3.0 0.00 0.28 0.00 93 1009.3
20260507045413 52 257 2.0 5.0 0.00 0.28 0.00 93 1009.2
20260507044914 51 240 2.0 3.0 0.00 0.28 0.00 93 1009.1
20260507044416 51 242 1.0 3.0 0.00 0.28 0.00 92 1008.9
20260507043917 50 233 1.0 3.0 0.00 0.28 0.00 92 1008.9
20260507043419 50 261 1.0 3.0 0.00 0.28 0.00 91 1008.9
20260507042920 50 216 1.0 3.0 0.00 0.28 0.00 91 1008.9
20260507042422 50 232 0.0 2.0 0.00 0.28 0.00 91 1008.8
20260507041924 50 209 0.0 3.0 0.00 0.28 0.00 91 1008.6
20260507041425 50 197 0.0 1.0 0.00 0.28 0.00 90 1008.6
20260507040927 50 220 1.0 4.0 0.00 0.28 0.00 90 1008.6
20260507040428 50 211 1.0 2.0 0.00 0.28 0.00 90 1008.6
20260507035929 50 224 1.0 3.0 0.00 0.28 0.00 91 1008.6
20260507035430 50 242 2.0 3.0 0.00 0.28 0.00 90 1008.4
20260507034932 50 255 1.0 3.0 0.00 0.28 0.00 90 1008.4
20260507034433 50 240 1.0 4.0 0.00 0.28 0.00 90 1008.4
20260507033935 50 244 1.0 3.0 0.00 0.28 0.00 90 1008.5
20260507033436 50 241 2.0 3.0 0.00 0.28 0.00 90 1008.4
20260507032938 50 232 2.0 5.0 0.00 0.28 0.00 90 1008.4
20260507032439 50 230 2.0 4.0 0.00 0.28 0.00 90 1008.4
20260507031941 50 253 2.0 4.0 0.00 0.28 0.00 90 1008.4
20260507031442 50 250 2.0 4.0 0.00 0.28 0.00 90 1008.4
20260507030944 50 250 1.0 4.0 0.00 0.28 0.00 90 1008.3
20260507030445 51 241 2.0 4.0 0.00 0.28 0.00 90 1008.3
20260507025947 51 237 2.0 5.0 0.00 0.28 0.00 90 1008.3
20260507025448 51 242 1.0 3.0 0.00 0.28 0.00 90 1008.1
20260507024950 51 232 1.0 3.0 0.00 0.28 0.00 89 1008.1
20260507024451 51 254 1.0 2.0 0.00 0.28 0.00 89 1008.1
20260507023952 51 230 1.0 4.0 0.00 0.28 0.00 89 1008.1
20260507023454 51 237 1.0 3.0 0.00 0.28 0.00 89 1008.1
20260507022955 52 258 1.0 2.0 0.00 0.28 0.00 89 1008.1
20260507022457 52 232 0.0 2.0 0.00 0.28 0.00 89 1008.0
20260507021958 52 261 1.0 3.0 0.00 0.28 0.00 90 1008.0
20260507021500 52 262 1.0 3.0 0.00 0.28 0.00 90 1008.0
20260507021001 52 248 1.0 7.0 0.00 0.28 0.00 90 1008.0
20260507020503 52 264 2.0 4.0 0.00 0.28 0.00 90 1008.0
20260507020004 52 279 3.0 7.0 0.00 0.28 0.00 90 1007.9
20260507015506 52 250 3.0 5.0 0.00 0.28 0.00 90 1007.9
20260507015007 53 257 2.0 6.0 0.00 0.28 0.00 90 1007.8
20260507014509 53 244 3.0 7.0 0.00 0.28 0.00 90 1007.7
20260507014011 53 259 1.0 3.0 0.00 0.28 0.00 90 1007.7
20260507013512 53 246 2.0 7.0 0.00 0.28 0.00 90 1007.7
20260507013013 53 242 2.0 5.0 0.00 0.28 0.00 90 1007.6
20260507012515 53 239 1.0 3.0 0.00 0.28 0.00 89 1007.6
20260507012016 53 230 1.0 3.0 0.00 0.28 0.00 89 1007.5
20260507011518 53 242 1.0 2.0 0.00 0.28 0.00 90 1007.5
20260507011019 53 235 0.0 2.0 0.00 0.28 0.00 90 1007.4
20260507010520 54 229 0.0 2.0 0.00 0.28 0.00 89 1007.4
20260507010022 54 227 1.0 5.0 0.00 0.28 0.00 89 1007.4
20260507005523 54 240 2.0 5.0 0.00 0.28 0.00 89 1007.3
20260507005025 54 220 1.0 3.0 0.00 0.28 0.00 90 1007.2
20260507004526 54 236 1.0 3.0 0.00 0.28 0.00 90 1007.2
20260507004028 54 251 2.0 5.0 0.00 0.28 0.00 90 1007.1
20260507003529 55 278 2.0 6.0 0.00 0.28 0.00 90 1007.1
20260507003030 55 253 2.0 7.0 0.00 0.28 0.00 90 1007.1
20260507002532 55 254 3.0 6.0 0.00 0.28 0.00 90 1007.0
20260507002033 55 262 2.0 4.0 0.00 0.28 0.00 90 1007.0
20260507001535 55 224 1.0 2.0 0.00 0.28 0.00 90 1006.9
20260507001036 55 223 1.0 2.0 0.00 0.28 0.00 89 1007.0
20260507000538 55 225 1.0 4.0 0.00 0.28 0.00 89 1006.8
20260507000039 55 249 0.0 1.0 0.00 0.28 0.00 89 1006.7
20260506235541 55 204 0.0 0.0 0.00 0.28 0.00 89 1006.5
20260506235042 55 180 0.0 0.0 0.00 0.28 0.00 89 1006.5
20260506234544 56 260 1.0 2.0 0.00 0.28 0.00 89 1006.6
20260506234045 56 210 0.0 2.0 0.00 0.28 0.00 90 1006.6
20260506233547 56 246 1.0 2.0 0.00 0.28 0.00 90 1006.7
20260506233048 56 250 2.0 3.0 0.00 0.30 0.00 90 1006.7
20260506232550 56 133 0.0 1.0 0.00 0.30 0.00 89 1006.7
20260506232051 56 264 0.0 2.0 0.00 0.30 0.00 89 1006.7
20260506231553 56 197 0.0 0.0 0.00 0.30 0.00 89 1006.6
20260506231054 56 223 1.0 3.0 0.00 0.30 0.00 89 1006.6
20260506230556 56 80 0.0 1.0 0.00 0.32 0.00 89 1006.6
20260506230057 56 251 0.0 2.0 0.00 0.32 0.00 89 1006.5
20260506225558 56 244 1.0 4.0 0.00 0.32 0.00 89 1006.7
20260506225100 56 223 0.0 2.0 0.00 0.32 0.00 89 1006.7
20260506224601 56 259 1.0 3.0 0.00 0.32 0.00 89 1006.7
20260506224103 56 227 0.0 1.0 0.00 0.32 0.00 89 1006.6
20260506223604 56 258 1.0 4.0 0.00 0.32 0.00 88 1006.6
20260506223106 56 274 0.0 1.0 0.00 0.32 0.00 88 1006.6
20260506222607 56 256 0.0 2.0 0.00 0.32 0.00 88 1006.5
20260506222109 56 267 0.0 2.0 0.00 0.32 0.00 88 1006.5
20260506221606 56 227 0.0 0.0 0.02 0.32 0.00 88 1006.4
20260506221102 56 120 0.0 1.0 0.04 0.32 0.00 88 1006.2
20260506220559 56 93 0.0 1.0 0.06 0.32 0.00 88 1006.2
20260506220056 56 121 0.0 2.0 0.08 0.32 0.00 88 1006.2
20260506215552 56 91 1.0 3.0 0.08 0.34 0.00 88 1006.3
20260506215049 57 113 2.0 3.0 0.08 0.36 0.00 88 1006.3
20260506214546 57 100 1.0 3.0 0.08 0.36 0.00 87 1006.3
20260506214042 57 94 1.0 3.0 0.10 0.36 0.00 87 1006.3
20260506213539 57 93 2.0 5.0 0.10 0.38 0.00 87 1006.3
20260506213036 57 112 1.0 2.0 0.12 0.38 0.00 87 1006.5
20260506212532 57 138 0.0 1.0 0.18 0.38 0.00 87 1006.5
20260506212029 57 190 0.0 2.0 0.20 0.38 0.00 87 1006.6
20260506211525 57 106 0.0 2.0 0.18 0.36 0.00 87 1006.4
20260506211021 57 144 0.0 2.0 0.18 0.34 0.00 87 1006.4
20260506210517 57 188 0.0 1.0 0.16 0.34 0.00 87 1006.5
20260506210013 57 207 1.0 6.0 0.14 0.32 0.00 87 1006.6
20260506205509 57 229 2.0 5.0 0.14 0.34 0.00 86 1006.7
20260506205006 57 231 1.0 3.0 0.14 0.36 0.00 86 1006.7
20260506204503 57 222 1.0 5.0 0.14 0.36 0.00 86 1006.7
20260506203959 57 245 1.0 4.0 0.12 0.34 0.00 86 1006.6
20260506203456 57 258 0.0 2.0 0.12 0.34 0.00 86 1006.6
20260506202951 58 231 1.0 3.0 0.10 0.32 0.00 86 1006.5
20260506202446 58 227 2.0 3.0 0.04 0.28 0.00 86 1006.4
20260506201941 58 218 1.0 1.0 0.02 0.26 0.00 86 1006.1
20260506201438 58 161 1.0 1.0 0.02 0.26 0.00 85 1005.6
20260506200944 58 70 1.0 3.0 0.00 0.24 0.00 85 1005.2
20260506200446 58 198 1.0 3.0 0.00 0.24 0.00 85 1005.5
20260506195947 58 245 1.0 2.0 0.00 0.24 0.00 85 1005.5
20260506195449 58 223 2.0 3.0 0.00 0.24 0.00 85 1005.2
20260506194950 58 90 0.0 0.0 0.00 0.24 0.00 85 1005.1
20260506194452 58 232 1.0 3.0 0.00 0.24 0.00 85 1005.2
20260506193953 58 76 1.0 3.0 0.00 0.24 0.00 85 1005.2
20260506193454 58 260 0.0 1.0 0.00 0.24 0.00 84 1005.0
20260506192956 58 96 0.0 1.0 0.00 0.24 0.00 84 1004.9
20260506192457 58 86 1.0 2.0 0.00 0.24 0.00 84 1005.0
20260506191959 58 61 1.0 3.0 0.00 0.24 0.00 84 1005.0
20260506191500 58 69 1.0 3.0 0.00 0.24 0.00 84 1005.1
20260506191002 58 342 2.0 5.0 0.00 0.24 0.00 84 1005.5
20260506190503 58 187 1.0 3.0 0.00 0.24 0.00 84 1005.2
20260506190006 58 118 0.0 0.0 0.00 0.24 0.00 83 1004.9
20260506185506 58 90 0.0 0.0 0.00 0.24 0.00 83 1004.8
20260506185008 58 75 1.0 4.0 0.00 0.24 0.00 83 1004.7
20260506184509 58 96 1.0 5.0 0.00 0.24 0.00 83 1004.7
20260506184011 58 100 0.0 1.0 0.00 0.24 0.00 83 1004.6
20260506183512 58 99 0.0 3.0 0.00 0.24 0.00 83 1004.4
20260506183014 59 104 1.0 3.0 0.00 0.24 0.00 82 1004.2
20260506182515 59 117 2.0 7.0 0.00 0.24 0.00 82 1004.0
20260506182016 59 114 2.0 4.0 0.00 0.24 0.00 82 1003.9
20260506181518 59 108 2.0 3.0 0.00 0.24 0.00 82 1003.8